Regional Weather Roundup
Issued by NWS

Home | Current Version | Previous Version | Text Only | Print | Product List | Glossary Off
Versions: 1 2 3 4 5 6 7 8 9 10 11 12 13 14 15 16 17 18 19 20 21 22 23 24 25 26 27 28 29 30 31 32 33 34 35 36 37 38 39 40 41 42 43 44 45 46 47 48 49 50

000
ASUS43 KIND 150309
RWRIN

WEATHER ROUNDUP FOR INDIANA
NATIONAL WEATHER SERVICE INDIANAPOLIS IN
1000 PM EST THU DEC 14 2017

NOTE: "FAIR" INDICATES FEW OR NO CLOUDS BELOW 12,000 FEET WITH NO
SIGNIFICANT WEATHER AND/OR OBSTRUCTIONS TO VISIBILITY.

* - STATION DOES NOT REPORT WEATHER SUCH AS PRECIPITATION OR FOG.

+ - STATION NOT QUALITY CONTROLLED BY THE NATIONAL WEATHER SERVICE.
    USE DATA WITH CAUTION...ESPECIALLY DEWPOINT AND RELATIVE
    HUMIDITY OBSERVATIONS.

INZ001>003-010>013-019-020-150400-
NORTHWEST INDIANA

CITY           SKY/WX    TMP DP  RH WIND       PRES   REMARKS
GARY /AIRPORT/ CLEAR     18  27 100 W3        30.09S
KNOX *+        CLEAR     18  14  86 S5        30.07S WCI  11
LA PORTE +     CLEAR      6   4  92 CALM      30.07R
MICHIGAN CITY+ CLEAR     18  12  79 SW6       30.07S WCI   9
MONTICELLO +   CLOUDY    20  14  76 CALM      30.08R
RENSSELAER +   CLOUDY    21  16  79 CALM      30.09S
VALPARAISO     CLEAR     19  11  70 W6        30.07S WCI  11

$$

LMZ046-743>745-150400-
SOUTHERN LAKE MICHIGAN

STATION/POSITION TIME  TEMP    WIND        PRES    WAVE
                       AIR SEA DIR/SP/G            HT
                 (UTC) (F)     (DEG/KT/KT) (MB)    (FT)
BURNS HARBOR     0303   24     230/  6/ 11 1018.6
MICHIGAN CITY    0240   24     200/ 11/ 13   N/A

$$

INZ004-005-014>016-021>024-150400-
NORTH CENTRAL INDIANA

CITY           SKY/WX    TMP DP  RH WIND       PRES   REMARKS
GOSHEN         CLOUDY    19  10  68 S6        30.05F WCI  11
LOGANSPORT +   CLOUDY    21  16  79 CALM      30.09R
PERU/GRISSOM   CLOUDY    20  14  76 S3        30.07R
ROCHESTER +    CLOUDY    25  18  74 CALM      30.07S
SOUTH BEND     CLEAR     15  10  80 SW7       30.06S WCI   5
WARSAW +       CLEAR     19  10  68 CALM      30.06S

$$

INZ006>009-017-018-025>027-150400-
NORTHEAST INDIANA

CITY           SKY/WX    TMP DP  RH WIND       PRES   REMARKS
AUBURN +       CLOUDY    19  10  68 CALM      30.07S
FORT WAYNE     CLOUDY    19  12  74 CALM      30.08S
HUNTINGTON +   CLOUDY    20  13  72 CALM      30.08S
KENDALLVILLE + PTCLDY    18   9  67 S6        30.05S WCI  10

$$

INZ028-029-035-036-043>045-051>053-150400-
WEST CENTRAL INDIANA

CITY           SKY/WX    TMP DP  RH WIND       PRES   REMARKS
CRAWFORDSVL +  CLOUDY    21  17  83 MISG        N/A
GREENCASTLE +  CLOUDY    23  10  58 CALM      30.09S
LAFAYETTE      CLOUDY    26  16  65 CALM      30.09S
TERRE HAUTE    CLOUDY    28  18  66 CALM      30.11R

$$

INZ030>032-037>040-046>048-054>057-064-065-150400-
CENTRAL INDIANA

CITY           SKY/WX    TMP DP  RH WIND       PRES   REMARKS
COLUMBUS       CLEAR     25  18  74 CALM      30.11R
FRANKFORT +    CLOUDY    24  17  72 S3        30.09S
GREENWOOD *+   CLOUDY    26  18  71 CALM      30.09S
INDIANAPOLIS   MOCLDY    23  14  68 S5        30.09R WCI  17
-EAGLE CREEK   PTCLDY    24  13  62 CALM      30.08S
KOKOMO +       PTCLDY    21  14  74 S3        30.08S
MARION +       LGT SNOW  21  15  75 S3        30.08S
MT COMFORT *+  CLOUDY    19  16  86 S3        30.08S
SHELBYVILLE    CLOUDY    22  14  71 CALM      30.09R
ZIONSVILLE +   PTCLDY    20  16  83 CALM      30.08S

$$

INZ033-034-041-042-049-050-058-059-150400-
EAST CENTRAL INDIANA

CITY           SKY/WX    TMP DP  RH WIND       PRES   REMARKS
MUNCIE         CLOUDY    24  12  60 S3        30.08R
RICHMOND +     CLOUDY    19  16  86 CALM      30.07F

$$

INZ060-061-067>069-081>083-085>088-150400-
SOUTHWEST INDIANA

CITY           SKY/WX    TMP DP  RH WIND       PRES   REMARKS
EVANSVILLE     CLOUDY    32  22  66 NW5       30.11F WCI  27
HUNTINGBURG +  CLOUDY    30  21  69 CALM      30.10S
WASHINGTON +   CLOUDY    29  21  72 W3        30.11S

$$

INZ062-063-066-070>080-084-089>092-150400-
SOUTH CENTRAL AND SOUTHEAST INDIANA

CITY           SKY/WX    TMP DP  RH WIND       PRES   REMARKS
BEDFORD +      CLOUDY    27  18  69 CALM      30.09R
BLOOMINGTON    PTCLDY    24  15  68 CALM      30.09R
MADISON *+     CLOUDY    27  18  69 CALM      30.10S
NORTH VERNON + MOCLDY    23  18  80 CALM      30.10R
SEYMOUR +      PTCLDY    25  16  68 CALM      30.11R

$$




USA.gov is the U.S. government's official web portal to all federal, state and local government web resources and services.